Temperature
23 21 21 22 28 32 32 32 32 32 32 31 30 30 31 30 30 28 23 22 21 21 22 22 21 20 20 19 20 20 20 20 20 20 20 20 20 20 20 20 20 20 20 20 20 20 20 20 20
22 21 22 26 31 32 31 32 32 31 31 30 30 29 30 28 26 23 21 21 21 21 21 22 21 21 20 20 20 20 20 20 20 20 20 20 20 20 20 20 20 20 20 20 20 20 20 20 20
22 21 25 31 33 32 32 32 32 31 30 30 30 29 29 27 24 23 22 21 21 21 21 22 21 21 20 20 20 20 20 20 20 20 20 20 20 20 20 20 20 20 20 20 20 20 20 20 20
22 24 28 32 33 32 32 32 32 32 31 30 30 30 27 23 23 23 22 21 21 20 20 21 21 21 21 21 20 20 20 20 20 20 20 20 20 20 20 20 20 20 20 20 19 19 19 19 19
23 28 32 33 33 32 32 32 31 32 32 31 31 30 27 22 22 22 21 22 21 21 20 21 22 21 21 21 21 20 20 20 20 20 20 20 20 20 20 20 20 19 19 19 19 19 19 18 18
28 31 33 33 33 32 33 32 32 32 32 30 31 31 26 22 22 22 22 21 22 21 21 20 21 21 21 21 21 21 20 20 20 20 20 20 20 20 19 19 19 19 19 19 19 19 19 19 18
30 32 33 33 32 32 32 32 33 33 32 31 30 31 26 24 22 22 21 21 21 21 21 20 21 21 21 21 20 20 20 20 20 20 20 20 20 20 19 19 19 19 19 19 19 19 19 19 19
29 32 33 33 32 32 32 32 31 32 32 29 29 31 29 24 22 21 21 21 21 21 21 19 19 19 20 20 20 20 20 20 20 20 20 20 20 19 19 19 19 19 19 19 19 19 19 19 19
28 32 33 33 32 32 33 33 32 30 30 30 29 28 27 24 22 21 21 20 20 20 20 20 20 19 19 19 20 20 20 20 20 20 20 20 19 18 18 18 18 19 19 19 19 19 19 19 19
30 32 33 32 32 32 32 32 32 32 32 31 27 25 24 23 23 22 22 22 21 20 20 20 20 20 19 19 19 19 19 19 19 18 18 19 18 18 18 18 18 19 19 19 19 19 19 18 18
30 31 32 32 31 31 32 33 32 33 33 32 30 26 24 24 24 24 23 23 22 21 20 20 20 20 20 19 19 19 19 19 19 18 18 19 19 18 18 18 18 18 19 18 18 18 18 17 17
30 30 30 30 31 30 31 32 33 33 33 29 29 26 24 24 25 24 24 23 22 21 21 20 20 20 20 20 19 19 19 19 19 19 19 19 19 19 18 18 18 18 18 18 18 18 17 17 17
29 30 30 30 31 31 31 32 32 33 31 28 27 26 25 25 25 24 23 23 22 21 21 21 21 21 20 20 20 19 19 19 19 19 18 19 19 18 18 18 18 18 18 17 17 17 17 17 18
29 29 30 30 31 31 31 32 32 33 30 28 27 26 25 25 25 24 23 22 22 21 21 21 20 20 20 20 20 20 19 19 19 19 18 18 18 18 18 18 18 18 18 18 17 17 17 18 18
28 29 31 32 31 31 31 32 33 31 29 28 27 26 25 25 24 24 23 23 22 21 21 20 20 20 20 20 19 19 19 19 19 19 18 18 18 18 18 18 18 18 18 17 17 17 17 18 18
29 30 30 32 31 30 30 31 32 29 29 28 26 25 24 24 24 24 23 23 22 21 21 20 20 19 19 19 19 19 19 19 19 18 18 18 17 17 17 17 17 17 17 17 17 17 17 17 17
29 30 30 31 31 30 30 31 30 28 29 27 26 25 24 24 24 23 22 22 21 21 20 20 20 19 19 19 19 19 19 19 18 18 18 18 17 17 17 17 17 17 17 17 17 17 17 17 17
29 30 30 30 30 30 30 30 28 27 28 27 26 25 25 24 24 23 22 22 21 21 20 20 20 19 19 19 19 19 19 18 18 17 17 17 17 16 16 16 16 16 16 16 16 16 16 16 17
29 29 29 29 30 30 29 29 28 26 27 26 26 26 25 25 23 23 22 22 22 21 21 20 20 20 20 19 19 19 19 18 18 17 17 16 16 16 16 16 15 15 16 15 15 16 16 16 17
29 29 29 29 29 29 29 29 29 27 27 27 27 26 25 25 23 23 22 22 22 21 21 20 20 20 20 19 19 18 18 18 18 17 16 16 16 16 16 15 15 15 15 15 15 15 15 16 17
29 29 29 28 29 29 29 29 29 28 27 26 26 26 26 25 24 24 23 23 22 21 21 21 20 20 20 20 19 19 18 18 18 17 17 16 16 16 15 15 15 15 15 15 14 15 14 15 16
28 29 28 28 28 28 28 27 29 30 28 28 27 26 25 25 24 24 23 23 22 22 21 20 21 21 20 20 19 19 19 19 18 17 17 16 15 15 15 15 15 15 14 14 14 14 14 14 14
28 28 28 27 27 27 28 27 28 29 28 28 28 26 25 24 23 23 23 23 22 21 21 20 20 20 20 20 20 19 19 18 18 17 16 16 15 15 15 15 14 14 14 14 14 14 14 14 14
28 27 27 27 28 26 26 26 27 27 26 26 26 25 24 23 22 22 21 21 20 20 20 20 20 20 20 20 20 20 19 18 17 17 16 16 16 15 14 14 14 14 14 14 14 14 14 14 14
28 27 26 26 26 26 26 26 25 23 22 22 22 20 19 18 17 17 18 18 18 19 19 19 19 20 20 19 19 19 19 18 17 16 16 16 16 15 14 14 14 14 14 14 14 14 14 14 14
27 26 25 25 25 26 27 26 24 21 20 19 18 17 16 15 15 14 14 15 15 15 16 17 17 19 19 19 19 19 19 17 17 17 16 16 16 15 15 15 14 14 14 13 13 13 13 14 14
27 27 28 26 26 25 26 26 23 20 19 18 17 16 15 14 14 14 13 13 13 13 13 14 14 15 16 17 18 18 18 17 17 16 16 16 15 15 15 15 14 14 14 13 13 13 13 14 14
26 26 26 26 24 24 25 25 24 19 18 17 16 15 14 14 14 14 13 13 13 13 13 13 12 13 14 15 15 16 16 16 16 16 15 15 15 15 15 14 14 13 13 13 13 13 13 13 13
26 26 26 26 25 24 24 24 17 16 16 16 15 15 14 14 14 13 13 12 12 12 12 12 12 12 12 13 13 14 14 14 15 15 15 15 15 14 14 14 13 13 13 13 13 13 13 13 13
26 26 25 24 24 24 24 23 16 15 15 14 14 14 14 13 13 13 13 12 12 11 11 11 11 11 11 11 12 12 13 13 14 14 14 14 14 14 14 14 13 13 12 13 13 13 13 13 13
Wind_Speed
9 7 5 4 5 3 7 6 3 5 5 4 3 1 3 4 5 4 6 13 16 18 20 21 17 16 14 14 14 14 15 15 15 14 13 12 11 11 10 9 8 7 7 7 6 6 6 6 7
3 4 4 5 4 5 7 4 4 6 6 3 3 2 3 6 6 6 9 12 17 18 19 19 18 16 15 14 13 14 14 14 13 13 12 11 9 9 8 8 7 6 6 6 5 5 5 5 5
4 6 4 5 1 4 6 5 5 3 2 3 3 4 4 6 5 5 9 16 17 16 17 18 19 16 15 14 13 13 13 13 12 12 11 10 9 9 8 7 7 6 5 5 5 5 5 5 4
4 5 5 6 1 4 2 4 4 0 1 3 3 6 6 6 3 7 14 17 17 16 16 19 19 18 16 15 14 13 13 12 11 11 10 9 9 8 8 8 7 7 7 6 5 5 5 5 5
5 5 6 4 2 3 1 2 2 1 2 3 3 7 7 6 7 12 16 17 16 16 15 19 19 18 17 16 15 14 13 12 11 11 10 9 9 8 8 8 8 7 6 6 6 6 6 6 7
5 5 7 3 4 2 1 2 2 3 3 3 4 8 7 8 9 12 14 15 15 14 14 18 18 17 17 16 15 15 14 13 12 11 10 10 9 9 9 9 9 8 8 7 7 7 7 7 8
7 6 5 3 3 4 2 1 1 0 3 3 3 6 9 10 11 12 13 13 13 13 13 15 17 16 15 14 14 14 14 13 13 12 12 12 11 11 11 11 11 11 11 10 10 10 10 10 10
5 6 6 4 4 4 3 2 1 3 3 4 1 3 8 13 13 12 12 11 11 11 11 12 13 14 15 15 15 15 14 14 15 14 14 14 13 13 14 14 15 14 13 13 13 13 13 12 12
4 7 8 4 3 4 3 0 2 0 2 3 4 7 11 19 16 14 12 11 10 10 10 11 12 12 13 14 16 17 16 17 16 16 17 15 15 15 15 17 14 15 15 15 15 14 14 14 15
5 10 4 2 1 4 4 3 2 3 5 5 7 9 15 18 17 15 14 13 13 13 12 11 10 11 12 11 12 13 15 15 16 14 15 15 14 12 12 7 10 14 16 16 17 16 15 15 13
5 8 3 3 5 7 6 4 4 6 5 3 5 13 16 17 16 14 13 12 12 13 12 12 11 10 10 9 10 10 11 11 14 15 14 13 11 11 12 10 11 14 16 15 14 14 12 11 10
7 8 7 7 7 8 9 8 7 8 2 5 1 14 18 18 16 14 12 11 11 11 12 11 10 10 10 9 7 8 9 9 10 12 14 12 8 9 9 7 10 9 10 9 9 7 9 10 12
9 9 8 8 9 10 10 11 10 9 1 3 7 15 16 17 16 13 11 9 9 10 11 10 9 9 8 8 7 8 9 9 10 10 11 12 9 9 9 8 9 10 10 7 7 9 9 11 12
6 10 12 11 8 7 9 12 12 9 2 6 10 13 15 15 16 13 11 10 10 9 9 9 9 8 8 8 8 8 8 8 10 9 11 12 10 9 10 10 9 10 10 8 7 8 9 11 12
8 10 11 7 4 4 8 15 15 5 4 7 10 12 14 14 13 12 11 10 10 10 9 9 9 9 9 10 10 8 8 9 8 8 11 11 11 11 9 10 10 9 10 9 8 8 8 13 15
8 10 11 5 3 2 7 16 6 3 7 9 10 12 13 13 13 10 9 7 7 9 10 9 8 7 8 7 7 7 7 7 7 8 8 10 10 9 8 7 7 8 9 8 8 8 11 14 15
9 10 8 4 1 4 5 9 1 4 8 9 11 12 13 12 11 9 8 7 7 8 8 7 6 6 5 6 6 6 6 6 7 7 7 7 7 6 4 4 5 6 6 7 9 9 11 13 14
6 7 5 3 4 5 4 3 1 4 7 9 11 11 11 11 10 9 8 8 7 7 6 6 6 5 4 3 3 4 5 5 5 5 4 4 3 4 5 5 5 7 8 8 8 10 11 12 13
3 5 4 1 5 6 4 1 3 4 7 9 11 11 11 10 9 8 8 8 8 8 7 6 4 4 3 2 2 2 3 3 3 2 1 1 2 4 5 7 7 7 9 10 12 12 14 13 13
1 4 4 3 2 6 7 4 4 6 8 9 10 11 11 10 9 8 8 8 8 8 7 6 6 5 5 3 2 3 4 4 4 3 1 3 4 5 6 6 8 9 8 11 12 12 13 14 12
5 7 8 9 9 10 10 12 10 8 9 9 10 10 11 10 10 9 9 9 8 8 7 6 5 6 6 5 4 3 4 5 4 4 4 4 5 6 7 8 9 9 10 10 10 12 14 14 14
9 6 7 9 12 13 9 14 13 9 11 13 12 11 11 9 8 8 9 9 8 7 7 7 8 8 7 7 6 5 5 6 6 5 5 5 5 7 7 8 8 8 9 9 10 11 11 13 14
7 5 6 9 12 12 8 9 8 3 9 12 13 12 10 8 7 7 7 6 4 5 6 8 8 9 8 8 7 7 7 6 5 4 4 6 6 5 6 7 8 8 9 10 11 11 12 12 14
4 7 9 9 9 5 2 7 4 7 11 11 7 3 4 2 1 3 6 7 6 7 7 8 8 9 9 9 8 8 8 7 7 6 5 6 5 5 5 7 8 10 10 11 12 12 13 12 14
8 10 8 7 5 2 1 6 5 14 15 15 16 15 14 15 15 15 15 13 12 11 10 10 9 10 9 9 9 9 9 8 9 7 5 6 7 6 6 8 9 10 10 12 13 13 13 13 14
9 9 8 8 8 8 4 2 9 15 16 17 18 18 18 18 17 17 17 17 16 17 16 14 11 9 8 8 8 8 8 8 7 7 6 6 6 6 7 9 9 11 12 12 12 13 13 13 13
7 6 6 9 9 10 5 2 11 15 16 16 17 18 18 18 18 17 17 17 17 17 18 18 16 13 9 6 5 6 8 9 9 8 8 7 6 7 8 9 10 11 12 12 12 11 13 13 13
3 5 5 7 8 9 7 8 2 10 11 13 15 16 16 16 16 17 16 17 16 16 17 17 18 17 16 13 9 6 7 10 11 11 10 8 8 8 9 10 11 12 12 12 12 12 11 11 11
4 4 5 7 7 10 14 6 5 7 8 9 11 13 14 15 15 15 15 16 17 17 17 17 17 17 17 16 15 12 11 10 11 11 11 11 10 10 10 10 10 11 12 12 11 11 10 9 8
4 4 5 7 9 10 14 4 7 8 7 7 10 12 14 15 16 16 15 15 15 16 16 16 16 16 16 16 16 14 13 12 11 12 13 13 13 13 12 11 10 10 11 10 10 9 7 6 5
Wind_Direction
181 190 215 234 240 164 93 91 62 48 56 46 51 47 20 18 359 57 117 144 148 148 148 156 163 162 156 152 148 144 145 147 147 146 146 145 144 144 144 138 131 130 131 133 135 136 133 134 135
197 199 225 245 252 110 107 96 70 58 68 79 81 69 65 66 47 94 140 150 154 150 150 159 160 164 159 156 154 152 151 152 152 152 151 151 149 148 152 152 150 151 151 151 153 152 150 148 151
219 229 259 259 265 84 99 92 61 83 65 10 58 47 47 56 74 110 138 152 155 148 150 150 160 165 162 161 160 159 159 160 160 160 160 161 162 165 168 170 171 176 179 180 183 182 176 175 178
235 234 247 258 181 86 70 61 43 92 67 39 61 83 80 52 69 113 138 153 152 150 156 152 164 167 166 167 168 167 167 169 171 172 174 174 175 180 184 187 190 196 198 203 210 214 209 208 211
251 262 252 229 156 104 93 18 26 6 51 53 63 91 94 77 95 124 145 152 152 156 157 154 166 169 170 172 174 174 176 178 182 186 192 194 195 200 208 209 208 212 216 218 226 237 238 228 227
255 261 260 218 137 136 167 163 173 53 85 95 90 99 100 114 122 134 145 154 155 157 159 151 164 171 174 176 179 180 183 186 190 195 202 208 212 217 226 230 227 226 229 234 239 245 252 255 252
278 281 272 249 170 153 118 180 271 115 131 104 101 105 124 136 131 140 146 156 157 163 160 155 168 172 176 181 184 187 190 193 197 203 209 215 220 225 231 237 237 235 233 232 235 242 249 255 260
281 272 237 210 187 127 114 177 5 326 83 109 151 106 134 145 141 143 147 156 161 168 165 163 178 174 180 184 189 196 200 203 206 210 215 219 224 229 231 236 231 232 237 239 241 245 250 252 251
267 252 223 172 134 104 60 52 96 174 189 153 88 68 107 137 143 148 152 157 167 177 179 178 181 182 192 195 184 195 204 209 212 214 217 223 233 234 224 229 224 225 236 243 246 249 253 255 249
250 249 206 75 6 339 336 323 278 221 219 186 131 112 128 145 151 160 164 167 172 179 185 187 192 190 204 208 195 207 212 211 217 227 220 224 234 248 253 230 214 235 244 248 247 249 255 255 262
252 265 329 304 324 330 312 273 234 238 235 228 182 156 155 157 160 166 168 171 169 174 182 189 197 199 210 212 219 220 225 226 225 232 235 240 250 249 249 245 227 231 238 245 243 241 255 266 271
262 271 283 289 305 307 303 284 252 235 269 59 104 162 163 164 165 167 169 165 160 169 178 187 192 201 215 228 230 237 240 237 239 234 236 241 245 252 260 259 261 261 253 252 259 263 274 277 278
257 277 287 281 281 281 277 266 265 256 352 99 138 156 165 165 164 165 166 163 164 173 180 185 191 202 213 230 249 248 250 252 243 246 246 242 246 254 261 265 268 271 277 274 262 271 280 280 276
290 291 282 278 275 255 254 255 249 253 144 138 151 162 167 167 166 164 174 180 181 182 183 191 201 206 214 223 234 247 255 252 262 255 253 254 255 258 260 263 264 265 267 265 259 266 274 274 273
284 281 268 244 260 255 252 247 241 251 190 167 163 164 164 167 169 176 184 189 188 189 193 197 203 206 215 231 245 253 256 259 264 268 268 268 267 266 266 270 269 269 264 253 243 245 256 263 265
252 252 248 213 306 317 259 256 215 217 206 184 168 164 165 166 175 182 184 191 190 190 194 202 208 208 220 237 260 272 273 277 278 282 288 289 291 285 281 279 278 275 266 250 237 235 244 253 259
224 235 243 222 359 329 267 268 60 241 203 185 177 170 166 169 175 175 178 182 186 188 189 194 209 222 236 252 262 269 276 281 288 296 303 306 306 308 296 292 292 287 275 260 254 244 243 253 259
217 230 223 248 6 329 305 284 213 217 195 185 182 177 175 172 167 159 153 147 153 157 162 171 192 208 225 237 248 278 291 296 298 303 311 317 336 359 341 312 315 304 289 278 269 267 252 253 258
270 253 248 308 1 328 342 330 173 187 191 189 190 185 183 174 157 150 142 140 139 138 141 150 162 160 180 187 264 283 296 306 307 304 327 312 336 343 323 313 314 296 290 289 285 278 269 260 258
246 257 258 250 349 319 311 282 201 197 207 206 203 200 195 180 165 160 160 157 152 148 146 151 161 163 182 183 235 271 304 300 316 303 271 295 319 319 312 316 299 292 286 274 271 269 272 270 262
285 288 297 299 302 271 276 266 220 213 223 225 224 217 209 194 179 173 176 174 172 170 171 170 175 186 202 204 226 227 240 259 266 269 269 308 318 316 316 305 298 291 278 274 274 274 268 269 266
298 329 305 299 297 293 288 285 269 242 240 236 230 222 214 194 183 182 190 193 192 194 193 193 201 213 215 219 242 268 292 306 314 300 305 315 303 310 313 306 298 290 286 282 275 270 270 267 266
327 339 300 297 296 289 272 276 289 274 276 263 239 228 223 195 195 210 222 226 233 238 234 223 219 226 229 231 233 246 264 279 278 277 283 291 299 299 307 305 300 294 292 294 290 284 274 267 264
306 276 263 259 268 263 10 302 307 22 3 354 353 245 235 195 232 299 310 312 308 297 281 263 249 245 240 236 238 239 254 257 259 254 281 290 303 301 305 306 302 297 297 294 287 282 275 271 270
288 294 286 267 258 316 48 289 42 43 32 35 38 41 41 38 28 20 11 2 351 336 318 298 280 269 259 246 242 237 238 237 235 247 261 287 304 309 316 311 303 300 299 296 291 283 278 275 270
312 294 281 298 304 313 291 265 82 61 57 55 57 54 50 47 44 38 30 26 21 13 3 350 329 305 282 257 241 232 229 234 232 227 261 275 291 300 308 298 297 297 297 297 294 288 281 274 270
307 293 319 289 282 284 278 194 119 61 60 55 53 49 45 41 39 35 28 24 20 17 14 9 2 354 342 310 263 238 230 237 235 223 231 253 263 275 280 289 293 293 295 296 296 287 284 278 271
317 314 286 285 296 293 283 261 315 36 46 47 43 38 33 29 26 23 17 12 9 7 7 6 5 2 1 356 338 304 264 243 237 235 238 248 256 261 268 277 286 291 294 295 291 285 281 281 279
291 256 284 285 291 293 292 302 71 64 51 35 30 23 19 15 12 9 6 2 359 358 357 356 355 353 354 354 350 342 322 294 268 255 252 249 249 248 250 261 277 286 290 293 290 290 297 293 296
274 302 297 299 299 286 285 293 100 92 68 30 7 360 359 358 356 355 355 352 350 350 349 348 346 344 341 339 337 337 333 325 311 292 277 263 254 248 246 252 266 276 281 285 286 293 300 300 306
Height
1512 1512 1513 1515 1507 1494 1499 1497 1494 1493 1493 1497 1498 1498 1498 1500 1502 1511 1515 1515 1517 1520 1522 1525 1527 1530 1533 1536 1539 1541 1543 1545 1546 1548 1549 1550 1551 1552 1553 1553 1554 1555 1556 1556 1557 1557 1557 1558 1558
1514 1514 1516 1513 1497 1499 1503 1497 1495 1496 1499 1500 1500 1501 1500 1504 1509 1512 1512 1515 1518 1521 1523 1526 1528 1532 1535 1537 1540 1542 1544 1546 1547 1548 1550 1551 1552 1553 1554 1554 1555 1556 1557 1557 1558 1558 1559 1559 1559
1514 1515 1516 1503 1492 1498 1500 1495 1497 1499 1501 1500 1501 1503 1504 1509 1512 1513 1514 1516 1521 1524 1526 1527 1530 1533 1536 1539 1541 1543 1545 1546 1548 1549 1550 1551 1552 1553 1554 1554 1555 1556 1556 1557 1558 1559 1559 1559 1560
1517 1517 1513 1500 1494 1494 1496 1495 1498 1498 1499 1501 1501 1504 1509 1513 1514 1515 1514 1519 1523 1525 1528 1529 1532 1534 1537 1539 1542 1544 1546 1547 1548 1549 1550 1551 1552 1553 1553 1554 1555 1555 1556 1557 1557 1558 1558 1559 1559
1518 1514 1502 1496 1495 1495 1497 1499 1499 1498 1498 1500 1501 1504 1511 1515 1515 1515 1517 1522 1525 1528 1530 1530 1532 1535 1538 1540 1542 1544 1546 1547 1548 1549 1550 1551 1552 1552 1553 1554 1554 1554 1555 1556 1556 1556 1557 1557 1557
1517 1507 1499 1496 1496 1496 1495 1498 1498 1498 1499 1502 1502 1504 1513 1516 1517 1519 1521 1524 1527 1529 1532 1531 1533 1535 1538 1540 1542 1544 1545 1546 1548 1549 1550 1550 1551 1551 1552 1552 1553 1553 1553 1554 1554 1554 1555 1555 1555
1515 1504 1498 1496 1497 1496 1496 1497 1496 1496 1498 1502 1504 1504 1513 1517 1518 1520 1522 1525 1527 1530 1533 1531 1533 1535 1537 1539 1541 1543 1544 1545 1546 1547 1548 1549 1549 1550 1550 1551 1551 1551 1551 1551 1551 1552 1552 1553 1553
1513 1504 1497 1495 1497 1497 1496 1497 1499 1498 1498 1504 1505 1503 1510 1516 1517 1519 1522 1525 1527 1530 1533 1532 1536 1537 1538 1539 1540 1541 1543 1544 1544 1545 1546 1546 1547 1547 1548 1548 1548 1548 1549 1549 1549 1549 1549 1550 1550
1514 1505 1496 1495 1498 1497 1496 1496 1499 1501 1501 1503 1506 1507 1510 1513 1516 1519 1522 1524 1526 1529 1532 1534 1537 1537 1538 1540 1539 1539 1540 1541 1542 1542 1543 1543 1544 1546 1546 1546 1546 1546 1546 1546 1546 1546 1546 1546 1546
1510 1501 1494 1497 1499 1498 1497 1497 1497 1498 1498 1501 1506 1508 1509 1512 1516 1519 1522 1524 1525 1527 1530 1532 1535 1536 1537 1539 1539 1538 1539 1539 1539 1541 1541 1541 1542 1543 1544 1544 1542 1543 1543 1543 1543 1543 1543 1543 1544
1508 1500 1498 1499 1500 1500 1497 1495 1496 1496 1494 1497 1501 1507 1508 1512 1515 1519 1522 1524 1525 1526 1528 1530 1532 1533 1535 1536 1537 1538 1538 1538 1538 1537 1537 1537 1538 1538 1539 1540 1539 1539 1539 1540 1541 1541 1541 1541 1541
1508 1504 1504 1502 1500 1500 1498 1495 1493 1494 1494 1499 1502 1504 1507 1510 1514 1518 1520 1523 1524 1526 1527 1529 1530 1531 1532 1534 1535 1535 1535 1535 1535 1534 1533 1533 1533 1534 1535 1535 1536 1536 1537 1537 1537 1537 1538 1536 1535
1506 1503 1502 1501 1500 1498 1498 1495 1493 1492 1495 1499 1501 1503 1506 1509 1513 1516 1519 1521 1523 1524 1526 1528 1528 1529 1530 1530 1531 1531 1531 1532 1532 1530 1530 1529 1529 1529 1530 1530 1530 1531 1532 1533 1532 1532 1532 1531 1530
1505 1503 1500 1498 1497 1497 1496 1492 1492 1491 1496 1499 1501 1503 1506 1509 1512 1515 1517 1520 1521 1523 1525 1526 1527 1528 1528 1528 1528 1527 1528 1527 1527 1527 1526 1525 1525 1525 1525 1525 1525 1526 1526 1526 1526 1526 1527 1525 1523
1506 1502 1495 1493 1494 1494 1494 1490 1488 1491 1495 1498 1500 1503 1505 1508 1511 1514 1516 1518 1520 1521 1523 1524 1524 1525 1526 1526 1526 1526 1525 1524 1524 1523 1522 1521 1521 1520 1520 1520 1520 1520 1520 1520 1520 1520 1520 1519 1517
1500 1498 1495 1489 1492 1493 1494 1490 1484 1493 1494 1497 1500 1502 1504 1507 1510 1512 1514 1516 1518 1519 1520 1521 1523 1523 1523 1523 1523 1523 1522 1521 1521 1519 1518 1518 1517 1516 1515 1515 1515 1515 1515 1515 1515 1514 1514 1513 1512
1497 1495 1493 1490 1491 1490 1490 1486 1489 1492 1493 1496 1500 1502 1504 1506 1508 1510 1511 1512 1514 1516 1517 1519 1520 1521 1521 1521 1521 1521 1520 1519 1518 1517 1515 1514 1513 1513 1512 1511 1511 1511 1511 1511 1510 1510 1509 1508 1506
1497 1493 1494 1493 1490 1487 1487 1488 1491 1493 1493 1496 1499 1500 1502 1503 1505 1507 1508 1510 1512 1513 1515 1517 1518 1519 1519 1520 1520 1519 1518 1517 1515 1514 1513 1512 1511 1510 1510 1510 1509 1508 1508 1507 1506 1505 1504 1502 1501
1496 1496 1495 1494 1492 1489 1489 1490 1491 1494 1494 1496 1497 1498 1499 1501 1503 1505 1507 1509 1511 1512 1514 1516 1518 1518 1518 1519 1519 1518 1517 1515 1514 1513 1511 1510 1509 1508 1507 1507 1505 1504 1503 1502 1501 1500 1499 1497 1497
1497 1497 1495 1492 1492 1492 1490 1489 1489 1493 1492 1493 1494 1496 1497 1500 1502 1504 1506 1508 1510 1512 1514 1515 1516 1517 1517 1517 1517 1516 1515 1514 1513 1511 1509 1508 1507 1505 1504 1501 1500 1498 1496 1494 1493 1492 1491 1491 1491
1496 1497 1496 1497 1492 1488 1491 1490 1487 1488 1491 1493 1493 1494 1496 1498 1501 1504 1506 1508 1510 1512 1513 1514 1515 1516 1516 1515 1516 1514 1513 1511 1511 1509 1508 1506 1503 1501 1499 1496 1494 1491 1489 1488 1486 1485 1484 1483 1483
1498 1493 1496 1497 1498 1494 1491 1501 1483 1479 1485 1488 1490 1493 1495 1499 1502 1504 1506 1508 1510 1511 1512 1513 1513 1514 1514 1514 1514 1513 1512 1510 1508 1507 1505 1502 1499 1497 1494 1491 1488 1486 1484 1482 1480 1479 1477 1475 1474
1498 1498 1497 1497 1497 1498 1492 1499 1486 1481 1486 1484 1486 1491 1495 1500 1503 1506 1507 1509 1510 1510 1511 1511 1511 1511 1511 1511 1510 1510 1509 1507 1505 1503 1501 1498 1496 1492 1489 1487 1484 1482 1480 1478 1475 1473 1471 1470 1468
1498 1498 1495 1494 1492 1502 1500 1502 1494 1488 1493 1489 1487 1491 1496 1500 1503 1506 1508 1509 1509 1508 1508 1508 1507 1507 1507 1507 1506 1505 1505 1503 1501 1499 1497 1495 1493 1490 1487 1484 1481 1479 1476 1473 1471 1468 1466 1464 1462
1496 1501 1505 1505 1502 1501 1495 1498 1500 1504 1503 1501 1500 1500 1502 1503 1505 1505 1507 1507 1507 1506 1505 1505 1503 1502 1502 1501 1501 1501 1500 1499 1497 1496 1494 1491 1490 1487 1484 1481 1478 1476 1473 1470 1467 1463 1460 1458 1457
1497 1501 1511 1517 1510 1499 1491 1496 1505 1510 1511 1511 1510 1510 1510 1510 1510 1511 1510 1508 1506 1504 1502 1500 1498 1497 1496 1495 1495 1495 1495 1494 1493 1491 1489 1488 1485 1483 1480 1478 1475 1472 1469 1466 1463 1460 1456 1453 1451
1499 1495 1492 1501 1499 1506 1493 1491 1501 1510 1513 1515 1515 1515 1515 1514 1514 1513 1512 1510 1508 1505 1502 1499 1497 1494 1492 1491 1490 1489 1489 1488 1487 1484 1483 1483 1481 1479 1476 1474 1471 1469 1466 1462 1458 1455 1451 1448 1444
1501 1498 1499 1501 1511 1511 1498 1494 1495 1511 1516 1519 1520 1519 1518 1517 1516 1515 1513 1512 1509 1507 1503 1500 1497 1495 1491 1489 1487 1486 1485 1483 1481 1479 1477 1476 1475 1474 1472 1470 1468 1465 1462 1459 1455 1451 1447 1443 1439
1500 1499 1499 1496 1500 1511 1509 1499 1516 1519 1521 1522 1523 1523 1521 1520 1518 1516 1514 1512 1509 1506 1502 1499 1496 1494 1491 1488 1485 1481 1480 1478 1476 1474 1473 1471 1470 1468 1467 1465 1463 1461 1458 1455 1451 1448 1444 1439 1436
1497 1497 1499 1506 1506 1500 1502 1505 1518 1521 1524 1525 1525 1524 1522 1520 1518 1515 1513 1510 1507 1503 1499 1496 1494 1492 1490 1487 1484 1480 1476 1473 1469 1467 1467 1466 1465 1464 1462 1460 1458 1456 1454 1452 1448 1445 1441 1437 1434